Location: New Canada
(47.1017°N, 68.5042°W)
Time: 06:45:05
(UTC+00:00)

X-37B - Pass Details

Date: 09 December 2022
Orbit: 277 x 277 km, 45.0° (Epoch: 01 November)

Event Time Altitude Azimuth Distance (km) Brightness Sun altitude
Rises 21:59:14 0° 226° (SW) 1,907 5.5 -12.1°
Reaches altitude 10° 22:01:25 10° 208° (SSW) 1,098 3.6 -12.5°
Maximum altitude 22:03:18 20° 157° (SSE) 730 1.9 -12.8°
Enters shadow 22:04:10 17° 128° (SE) 823 1.9 -12.9°
